Location: Newark
(34.3481°N, 134.0494°E)
Time: 13:02:40
(UTC+00:00)

SR - All Passes

Search period start: 19 January 2020 00:00
Search period end: 29 January 2020 00:00
Orbit: 574 x 882 km, 66.7° (Epoch: 19 January)

Date Brightness Start Highest point End Pass type
(mag) Time Alt. Az. Time Alt. Az. Time Alt. Az.
19 Jan - 01:10:47 10° NW 01:15:01 24° WSW 01:18:58 10° SSW daylight
19 Jan - 13:52:57 10° S 13:58:29 55° ESE 14:04:15 10° NE night (unlit)
19 Jan - 15:36:29 10° WSW 15:40:57 22° NW 15:45:31 10° N night (unlit)
19 Jan - 22:39:14 10° N 22:43:10 19° NE 22:46:52 10° E daylight
20 Jan - 00:20:23 10° NW 00:25:39 53° WSW 00:30:28 10° S daylight
20 Jan - 13:04:25 10° SSE 13:09:04 27° ESE 13:13:53 10° NE night (unlit)
20 Jan - 14:45:32 10° SW 14:50:55 41° WNW 14:56:31 10° NNE night (unlit)
20 Jan - 21:52:15 10° NE 21:52:52 10° NE 21:53:28 10° NE daylight
20 Jan - 23:30:35 10° NNW 23:36:05 72° ENE 23:41:03 10° SSE daylight
21 Jan - 01:15:54 10° W 01:17:16 11° W 01:18:36 10° WSW daylight
21 Jan - 12:17:38 10° SE 12:19:50 12° ESE 12:22:05 10° ENE night (unlit)
21 Jan - 13:55:24 10° SSW 14:01:07 80° WNW 14:07:06 10° NNE night (unlit)
21 Jan - 15:41:33 10° WNW 15:44:11 13° NW 15:46:50 10° NNW night (unlit)
21 Jan - 22:41:15 10° N 22:46:14 34° NE 22:50:50 10° ESE daylight
22 Jan - 00:23:44 10° NW 00:28:04 25° WSW 00:32:07 10° SSW daylight
22 Jan - 13:06:03 10° S 13:11:32 51° ESE 13:17:16 10° NE night (unlit)
22 Jan - 14:49:21 10° WSW 14:53:57 24° NW 14:58:39 10° N night (unlit)
22 Jan - 21:52:25 10° N 21:56:09 18° NE 21:59:41 10° E daylight
22 Jan - 23:33:24 10° NW 23:38:42 57° WSW 23:43:31 10° S daylight
23 Jan - 12:17:36 10° SSE 12:22:09 25° ESE 12:26:51 10° NE night (unlit)
23 Jan - 13:58:29 10° SW 14:03:57 44° WNW 14:09:37 10° NNE night (unlit)
23 Jan - 22:43:39 10° NNW 22:49:06 67° ENE 22:54:01 10° SE daylight
24 Jan - 00:28:29 10° W 00:30:20 12° W 00:32:08 10° WSW daylight
24 Jan - 11:31:11 10° ESE 11:32:56 11° E 11:34:42 10° E night (unlit)
24 Jan - 13:08:26 10° SSW 13:14:10 85° WNW 13:20:09 10° NNE night (unlit)
24 Jan - 14:54:14 10° WNW 14:57:09 14° NW 15:00:07 10° NNW night (unlit)
24 Jan - 21:54:21 10° N 21:59:14 32° NE 22:03:44 10° ESE daylight
24 Jan - 23:36:43 10° NW 23:41:08 27° WSW 23:45:15 10° SSW daylight
25 Jan - 12:19:09 10° S 12:24:36 48° ESE 12:30:17 10° NE night (unlit)
25 Jan - 14:02:14 10° WSW 14:06:57 25° NW 14:11:47 10° N night (unlit)
25 Jan - 21:05:37 10° N 21:09:07 17° NE 21:12:28 10° E visible
25 Jan - 22:46:26 10° NNW 22:51:45 61° WSW 22:56:33 10° SSE daylight
26 Jan - 11:30:47 10° SSE 11:35:13 24° ESE 11:39:47 10° NE night (unlit)
26 Jan - 13:11:26 10° SW 13:16:59 46° WNW 13:22:42 10° NNE night (unlit)
26 Jan - 21:56:44 10° NNW 22:02:06 62° ENE 22:06:59 10° SE daylight
26 Jan - 23:41:12 10° WNW 23:43:24 13° WSW 23:45:33 10° SW daylight
27 Jan - 10:44:57 10° ESE 10:46:01 10° E 10:47:04 10° E night (unlit)
27 Jan - 12:21:27 10° SSW 12:27:13 90° WNW 12:33:12 10° NNE night (unlit)
27 Jan - 14:06:59 10° W 14:10:08 15° NW 14:13:21 10° NNW night (unlit)
27 Jan - 21:07:28 10° N 21:12:14 30° NE 21:16:38 10° ESE visible
27 Jan - 22:49:41 10° NW 22:54:12 29° WSW 22:58:22 10° SSW daylight
28 Jan - 11:32:14 10° S 11:37:40 45° ESE 11:43:17 10° NE night (unlit)
28 Jan - 13:15:07 10° WSW 13:19:58 26° NW 13:24:54 10° N night (unlit)
28 Jan - 20:18:49 10° N 20:22:06 16° NE 20:25:14 10° E visible
28 Jan - 21:59:28 10° NNW 22:04:46 65° WSW 22:09:35 10° SSE daylight
